CAPE
0 0 0 0 0 887 1225 1437 1437 1611 1399 1378 911 1585 1425 1134 906 1093 1069 1417 1175 1023 864 1096 829 444 389 467 486 377 325 422 512 593 466 408 682 758 688 722 738 703 679
0 0 0 0 0 753 1187 1398 1490 1800 1748 1807 1403 1200 1610 1136 1398 1013 1323 1367 1665 1422 1160 985 1265 760 820 442 574 517 558 556 522 556 643 642 658 660 712 678 577 663 729
0 0 0 0 0 445 1220 1337 1367 1732 1956 1831 1819 1525 1544 1564 1340 1538 1213 1428 1570 1669 1435 1236 1117 1337 964 1008 582 637 595 573 800 580 602 483 491 688 854 780 705 657 659
0 0 0 0 0 240 1447 1459 1510 1605 1855 1856 1768 1639 1572 1558 1532 1481 1430 1287 1550 1710 1730 1569 1365 1250 1365 1085 1000 704 740 668 631 879 782 554 412 736 503 802 828 635 448
0 0 0 0 0 1585 1913 1706 1654 1408 1607 1779 1669 1741 1534 1586 1616 1436 1539 1426 1590 1754 1817 1779 1675 1500 1307 1425 1207 989 917 809 692 760 913 836 920 623 331 456 660 667 499
0 0 0 0 0 350 1880 1802 1602 1430 1395 1683 1707 1774 1689 1436 1395 1553 1522 1674 1525 1670 1798 1858 1737 1710 1598 1411 1484 1273 1006 1013 897 839 1016 946 751 947 578 255 266 354 146
0 0 0 0 0 1 50 614 1268 1528 1604 1675 1580 1748 1842 1664 1601 1649 1819 1814 1784 1682 1711 1782 1777 1648 1730 1641 1556 1556 1427 1137 1063 970 1064 1063 877 762 903 411 270 291 185
0 0 0 0 0 0 0 0 0 90 1116 1365 1521 1703 1934 1752 1725 2064 2051 2162 2111 2040 2119 2080 1942 1782 1706 1765 1603 1625 1639 1489 1268 1151 1160 1103 1078 923 776 754 452 262 193
0 0 0 0 0 0 0 0 0 0 0 3 1 98 1324 2360 2219 2359 2403 2551 2459 2556 2408 2442 2419 2249 2126 1978 1943 1710 1735 1739 1561 1427 1284 1238 1169 1045 951 809 850 516 372
0 0 0 0 0 0 0 0 0 0 0 3 34 28 0 113 1805 2533 2493 2520 2457 2206 2453 2640 2736 2758 2695 2513 2169 2006 1841 1840 1786 1627 1540 1395 1359 1297 1140 1069 993 752 529
0 0 0 0 0 0 0 0 0 0 0 9 20 41 275 402 471 880 2133 2184 2318 2437 2221 2444 2653 2797 2843 2753 2517 2267 2112 1927 1913 1795 1790 1677 1556 1413 1365 1055 762 705 622
0 0 0 0 0 0 0 0 0 0 0 1 61 107 174 562 995 1053 1162 1625 2005 2008 2069 2155 2445 2522 2600 2619 2557 2400 2260 2115 1997 1894 1878 1948 1709 1563 1187 1349 688 560 274
0 0 0 0 0 0 0 0 0 0 0 0 0 14 115 234 519 732 830 1188 1641 1997 2175 2221 2164 2237 2545 2623 2645 2463 2281 2158 2089 1973 1978 1965 1757 1532 1395 976 621 691 612
0 0 0 0 0 0 0 0 0 0 0 0 0 0 0 86 281 563 726 984 1027 1753 2214 2349 2430 2444 2536 2472 2511 2402 2132 2028 2199 2154 2036 2022 1783 1505 1242 713 477 417 344
0 0 0 0 0 0 0 0 0 0 0 0 0 0 0 0 0 2 48 596 912 1083 2050 2426 2453 2394 2337 2131 1951 2003 1665 1874 1884 2229 2184 1914 1751 1384 1079 643 359 271 297
0 0 0 0 0 0 0 0 0 0 0 0 0 0 0 0 0 0 0 0 0 248 924 802 1415 1785 1945 1952 1876 1686 1320 1466 1321 1189 1635 1612 1305 1161 894 766 372 212 574
0 0 0 0 0 0 0 0 0 0 0 0 0 0 0 0 0 0 0 0 0 0 2 353 456 605 1166 1570 1678 1438 1447 1395 1323 1207 1246 1381 1215 1072 995 856 326 330 258
0 0 0 0 0 0 0 0 0 0 0 0 0 0 0 0 0 0 0 0 0 0 0 7 21 514 233 508 870 1149 1166 1245 1023 682 975 725 1093 1005 828 750 270 319 157
0 0 0 0 0 0 0 0 0 0 0 0 0 0 0 0 0 0 0 0 0 0 0 0 0 42 108 151 190 367 594 750 469 388 951 536 789 818 723 361 190 172 94
0 0 0 0 0 0 0 0 0 0 0 0 0 0 0 0 0 0 0 0 0 0 0 0 0 0 1 158 173 139 181 341 396 402 619 494 507 563 467 226 191 146 35
0 0 0 0 0 0 0 0 0 0 0 0 0 0 0 0 0 0 0 0 0 0 0 0 0 0 0 1 7 90 257 359 436 640 295 383 479 291 384 230 19 12 3
0 0 0 0 0 0 11 9 0 0 0 0 0 0 0 0 0 0 0 0 0 0 0 0 0 0 0 0 1 0 78 281 288 317 309 433 264 404 313 107 14 0 0
0 0 0 0 0 0 0 1 3 5 0 0 0 0 0 0 0 2 6 2 0 0 0 0 0 0 0 0 1 34 99 128 231 339 568 447 359 289 272 4 0 0 0
0 0 0 0 0 0 0 0 0 3 12 0 0 0 0 0 0 0 0 0 0 0 0 0 0 0 0 0 2 0 96 169 308 351 351 404 102 6 4 0 0 0 0
0 0 0 0 0 0 0 0 0 0 0 0 0 1 3 2 3 7 10 12 1 0 0 0 0 0 0 0 1 3 18 224 330 374 254 146 5 0 0 0 0 4 0
0 0 0 0 0 0 0 0 0 0 0 0 0 1 17 19 15 4 18 25 22 1 0 0 0 0 4 0 4 0 5 128 306 298 136 8 6 0 0 0 4 0 0
CIN
0 0 0 0 0 -68 -123 -207 -284 -340 -345 -284 -282 -152 -220 -246 -262 -238 -200 -225 -176 -153 -162 -143 -141 -173 -187 -156 -117 -128 -143 -116 -60 -28 -44 -78 -27 -28 -20 -27 -16 -17 -16
0 0 0 0 0 -79 -116 -177 -189 -257 -285 -286 -285 -247 -162 -200 -170 -206 -192 -212 -179 -154 -138 -164 -138 -198 -166 -204 -156 -146 -129 -101 -80 -54 -32 -20 -27 -57 -43 -32 -43 -37 -29
0 0 0 0 0 -144 -104 -162 -178 -242 -248 -275 -252 -198 -134 -81 -131 -159 -204 -190 -199 -172 -162 -160 -183 -137 -184 -165 -210 -184 -161 -153 -91 -93 -70 -43 -89 -75 -60 -63 -60 -38 -25
0 0 0 0 0 -259 -101 -18 -8 -232 -220 -219 -218 -223 -197 -169 -187 -190 -178 -201 -195 -193 -186 -196 -174 -190 -149 -184 -185 -217 -192 -165 -176 -97 -95 -95 -97 -60 -108 -77 -55 -30 -32
0 0 0 0 0 -135 -56 -23 -13 -110 -186 -190 -185 -191 -198 -178 -177 -159 -146 -164 -141 -167 -162 -170 -186 -180 -189 -167 -187 -185 -196 -187 -187 -204 -154 -96 -65 -79 -128 -141 -90 -58 -38
0 0 0 0 0 -64 -40 -23 -28 -161 -156 -153 -122 -119 -142 -169 -154 -128 -122 -130 -146 -126 -152 -163 -173 -180 -171 -196 -171 -165 -172 -162 -139 -189 -161 -178 -157 -121 -114 -157 -139 -118 -118
0 0 0 0 0 -11 -39 -78 -55 -66 -110 -121 -74 -40 -95 -86 -116 -132 -123 -93 -113 -136 -158 -182 -189 -200 -199 -168 -136 -115 -124 -150 -134 -148 -169 -136 -178 -188 -106 -101 -124 -99 -106
0 0 0 0 0 0 0 0 0 -5 -14 -20 -114 -70 -94 -103 -53 -72 -65 -44 -77 -75 -70 -85 -95 -128 -200 -153 -127 -90 -84 -91 -116 -126 -138 -134 -137 -165 -167 -106 -91 -97 -77
0 -2 0 0 0 0 0 0 0 0 0 -53 -79 -91 -43 -42 -29 -29 -19 -4 -7 -6 -6 -15 -34 -63 -89 -106 -98 -61 -46 -40 -73 -94 -95 -95 -96 -120 -106 -91 -37 -63 -80
0 0 0 0 0 0 0 0 0 0 0 -235 -306 -328 0 -104 -46 -19 -10 -9 -9 -8 -32 -17 -7 -3 -13 -19 -37 -30 -23 -13 -36 -66 -60 -63 -49 -36 -49 -54 -20 -35 -50
0 0 0 0 0 0 0 0 0 0 0 -157 -191 -181 -156 -31 -38 -141 -29 -12 -27 -10 -15 -15 -13 -8 -6 -5 -6 -6 -6 -13 -26 -48 -46 -27 -22 -11 -6 -22 -33 -17 -11
0 0 0 0 0 0 0 0 0 0 0 -36 -187 -129 -126 -98 -8 -13 -17 -40 -14 -14 -11 -21 -10 -7 -8 -7 -4 -3 -6 -7 -16 -41 -30 -7 -1 0 -4 0 -16 -35 -12
0 0 0 0 0 0 0 0 0 0 0 0 0 -104 -91 -77 -76 -64 -17 -12 -8 -9 -9 -7 -15 -21 -8 -7 -3 -5 -4 -8 -9 -17 -14 -2 0 0 0 -11 -31 -44 -20
0 0 0 0 0 0 0 0 0 0 0 0 0 0 0 -57 -41 -33 -39 -41 -43 -26 -6 -6 -6 -5 -3 -7 -6 -3 -6 -3 -1 -1 -2 -1 0 0 0 -24 -42 -50 -44
0 0 0 0 0 0 0 0 0 0 0 0 0 0 0 0 0 -8 -7 -11 -14 -19 -5 0 -2 -3 -6 -5 -9 -1 -1 -1 -5 0 0 0 0 0 0 -4 -34 -53 -41
0 0 0 0 0 0 0 0 0 0 0 0 0 0 0 0 0 0 0 0 0 -61 -7 -22 -5 -1 -2 -1 -3 -4 -7 -7 -1 -5 0 0 0 0 0 0 -16 -21 0
0 0 0 0 0 0 0 0 0 0 0 0 0 0 0 0 0 0 0 0 0 0 -142 -35 -29 -25 -5 -1 -1 -3 -2 -1 0 0 0 0 0 0 0 0 -8 -4 0
0 0 0 0 0 0 0 0 0 0 0 0 0 0 0 0 0 0 0 0 0 0 0 -60 -142 -13 -63 -23 -5 0 0 0 0 -17 0 -1 0 0 0 0 -1 0 0
0 0 0 0 0 0 0 0 0 0 0 0 0 0 0 0 0 0 0 0 0 0 0 0 0 -106 -67 -50 -47 -11 -4 -1 -12 -23 -1 -5 0 0 0 0 0 0 -4
0 0 0 0 0 0 0 0 0 0 0 0 0 0 0 0 0 0 0 0 0 0 0 0 0 0 -6 -31 -26 -34 -34 -6 -4 -19 -1 0 0 0 0 0 0 0 -4
0 0 0 0 0 0 0 0 0 0 0 0 0 0 0 0 0 0 0 0 0 0 0 0 0 0 0 0 -30 -52 -15 -8 -6 0 -1 0 0 0 0 0 -33 -14 0
0 0 0 0 0 0 -14 -1 0 0 0 0 0 0 0 0 0 0 0 0 0 0 0 0 0 0 0 0 0 0 -48 -6 -2 -1 -2 0 -4 0 0 -2 -25 0 0
0 0 0 0 0 0 -2 0 -2 -4 0 0 0 0 0 0 -1 -25 -16 -11 0 0 0 0 0 0 0 0 -12 -115 -48 -24 -3 -4 0 0 0 0 0 0 0 0 0
0 0 0 0 0 0 0 0 0 -3 -15 -4 0 0 0 0 0 0 0 0 0 0 0 0 0 0 0 0 0 0 -54 -24 0 0 0 -1 -14 -180 -23 0 -1 0 0
0 0 0 0 0 0 0 0 0 0 0 0 0 -10 -9 -3 -20 -22 -19 -20 -4 0 0 0 0 0 0 0 0 0 -136 -14 0 0 -1 -7 -5 0 0 0 0 0 0
0 0 0 0 0 0 0 0 0 0 0 0 0 -13 -17 -36 -21 -16 -23 -29 -19 -14 0 0 0 0 0 0 0 0 -136 -23 0 0 -1 0 0 0 0 0 -8 0 0
Wind_Speed
nan nan nan nan nan 51 51 43 41 39 46 47 43 39 27 24 26 27 30 33 26 23 19 21 20 21 20 21 22 24 25 25 30 31 27 29 32 33 33 32 33 35 38
nan nan nan nan nan 54 53 51 46 41 41 48 46 42 40 29 30 29 28 32 32 31 28 24 22 20 22 25 26 27 29 29 31 34 33 29 24 27 32 33 33 33 36
nan nan nan nan nan 53 54 54 52 50 40 42 51 51 49 41 32 28 26 26 30 31 32 32 30 27 27 26 29 31 33 32 31 34 38 33 27 31 31 33 32 34 38
nan nan nan nan nan 53 55 52 50 54 47 43 49 52 49 45 32 26 28 33 31 30 31 32 35 34 33 32 33 36 37 37 35 34 35 35 37 36 33 29 29 36 36
nan nan nan nan nan 56 62 62 55 50 52 48 46 50 50 48 43 34 32 32 36 32 31 31 33 34 36 35 39 40 41 41 41 38 38 33 36 43 38 30 34 30 31
nan nan nan nan nan 62 62 60 60 60 51 48 49 48 46 46 43 41 36 35 36 36 33 30 31 33 35 37 39 41 41 38 37 40 44 33 38 40 41 34 31 32 31
nan nan nan nan nan nan nan 68 63 57 56 61 73 60 35 44 45 51 39 37 37 37 33 33 32 33 34 36 41 42 39 39 41 45 42 33 32 40 41 41 36 38 38
nan nan nan nan nan nan nan nan nan nan 69 57 55 42 40 47 42 40 39 39 42 37 35 34 32 33 34 36 41 43 42 39 42 43 41 38 35 37 39 43 45 41 44
nan nan nan nan nan nan nan nan nan nan nan nan nan nan 47 43 48 42 47 49 48 45 41 37 35 36 35 37 36 41 41 45 45 44 44 41 39 39 41 43 46 47 46
nan nan nan nan nan nan nan nan nan nan nan nan nan nan nan 56 52 52 49 49 48 48 47 48 42 36 40 42 42 44 47 46 43 44 44 49 46 45 46 46 49 49 49
nan nan nan nan nan nan nan nan nan nan nan nan nan nan 66 68 62 57 55 54 54 53 56 57 54 45 45 45 50 48 41 47 49 43 48 50 53 50 53 54 57 50 49
nan nan nan nan nan nan nan nan nan nan nan nan nan 75 73 66 66 66 64 58 55 55 52 48 52 48 47 49 47 48 47 48 42 46 51 52 54 57 59 62 57 54 50
nan nan nan nan nan nan nan nan nan nan nan nan nan nan 77 74 73 65 61 57 54 51 50 57 51 50 49 50 48 46 51 45 40 46 51 56 57 57 56 60 62 53 50
nan nan nan nan nan nan nan nan nan nan nan nan nan nan nan nan 70 74 73 69 62 56 56 61 58 59 55 55 57 55 53 50 50 52 55 58 59 57 57 56 59 61 66
nan nan nan nan nan nan nan nan nan nan nan nan nan nan nan nan nan nan nan 69 66 67 65 61 59 60 60 58 63 62 57 56 57 58 61 60 60 64 57 60 59 63 69
nan nan nan nan nan nan nan nan nan nan nan nan nan nan nan nan nan nan nan nan nan 67 71 71 71 70 66 64 66 67 62 61 59 58 59 61 64 65 60 62 57 63 72
nan nan nan nan nan nan nan nan nan nan nan nan nan nan nan nan nan nan nan nan nan nan nan 58 59 57 61 64 64 66 63 61 60 62 64 64 64 71 70 72 72 69 68
nan nan nan nan nan nan nan nan nan nan nan nan nan nan nan nan nan nan nan nan nan nan nan nan nan 58 58 54 52 55 57 56 56 57 59 62 65 66 70 69 68 63 64
nan nan nan nan nan nan nan nan nan nan nan nan nan nan nan nan nan nan nan nan nan nan nan nan nan nan 59 60 65 61 59 59 58 61 60 62 62 65 70 69 66 66 nan
nan nan nan nan nan nan nan nan nan nan nan nan nan nan nan nan nan nan nan nan nan nan nan nan nan nan nan 63 64 65 63 63 61 61 60 61 62 67 66 65 65 65 nan
nan nan nan nan nan nan nan nan nan nan nan nan nan nan nan nan nan nan nan nan nan nan nan nan nan nan nan nan nan nan 61 60 61 62 63 64 75 72 71 70 nan nan nan
nan nan nan nan nan nan nan nan nan nan nan nan nan nan nan nan nan nan nan nan nan nan nan nan nan nan nan nan nan nan nan 64 64 64 66 65 77 73 73 71 nan nan nan
nan nan nan nan nan nan nan nan nan nan nan nan nan nan nan nan nan nan nan nan nan nan nan nan nan nan nan nan nan nan nan 69 66 62 70 77 71 74 69 nan nan nan nan
nan nan nan nan nan nan nan nan nan nan nan nan nan nan nan nan nan nan nan nan nan nan nan nan nan nan nan nan nan nan nan 63 61 63 58 54 55 nan nan nan nan nan nan
nan nan nan nan nan nan nan nan nan nan nan nan nan nan nan nan nan nan nan nan nan nan nan nan nan nan nan nan nan nan nan 48 52 51 46 51 nan nan nan nan nan nan nan
nan nan nan nan nan nan nan nan nan nan nan nan nan nan nan nan nan nan nan nan nan nan nan nan nan nan nan nan nan nan nan 58 55 50 52 nan nan nan nan nan nan nan nan
Wind_Direction
nan nan nan nan nan 268 275 274 270 271 271 275 281 277 285 275 280 277 291 299 305 307 297 279 283 290 298 297 298 290 296 297 298 295 295 299 310 315 310 314 315 315 315
nan nan nan nan nan 263 276 277 275 269 266 268 275 276 274 267 260 268 275 293 304 308 302 296 290 297 292 299 303 305 292 300 303 301 296 301 302 308 320 316 314 315 312
nan nan nan nan nan 257 274 274 275 275 269 270 266 266 263 260 259 263 274 276 290 297 302 301 298 298 294 302 305 305 310 306 303 305 300 299 311 305 311 318 310 312 310
nan nan nan nan nan 253 269 273 277 276 273 268 265 273 273 273 271 261 260 268 275 286 293 298 302 301 300 304 305 302 306 301 310 297 309 299 302 309 308 302 304 307 307
nan nan nan nan nan 248 262 266 269 271 272 271 267 265 267 269 267 258 258 269 265 275 284 287 292 298 295 301 305 307 307 309 309 312 303 301 301 305 299 305 303 298 304
nan nan nan nan nan 243 242 260 268 258 264 265 258 258 265 267 265 258 259 262 265 266 276 287 289 291 294 297 296 297 301 304 306 306 304 310 312 309 304 302 304 309 308
nan nan nan nan nan nan nan 246 247 255 260 259 260 254 259 256 266 253 255 263 263 265 278 286 283 283 291 292 288 293 298 304 301 298 305 303 312 305 302 301 302 302 301
nan nan nan nan nan nan nan nan nan nan 251 254 265 274 258 267 269 266 261 255 266 270 277 279 280 283 285 287 289 288 290 297 297 303 303 300 308 303 302 302 297 296 298
nan nan nan nan nan nan nan nan nan nan nan nan nan nan 255 266 272 264 259 259 259 259 264 270 278 280 282 283 289 285 290 292 293 298 292 297 299 297 298 291 292 294 298
nan nan nan nan nan nan nan nan nan nan nan nan nan nan nan 262 256 262 265 265 269 269 270 266 269 272 278 283 286 287 286 286 283 292 293 289 292 292 291 289 285 284 286
nan nan nan nan nan nan nan nan nan nan nan nan nan nan 238 242 249 256 259 260 256 258 265 275 275 276 278 273 276 283 278 283 288 285 288 288 292 289 284 285 278 272 284
nan nan nan nan nan nan nan nan nan nan nan nan nan 247 249 241 243 245 248 252 259 260 260 264 272 272 283 280 279 284 286 297 283 282 282 283 289 293 293 293 288 292 282
nan nan nan nan nan nan nan nan nan nan nan nan nan nan 246 246 249 247 246 246 249 258 257 269 272 275 278 275 269 277 286 290 287 286 286 289 293 291 289 292 293 292 286
nan nan nan nan nan nan nan nan nan nan nan nan nan nan nan nan 252 249 248 246 248 251 262 271 270 271 269 269 267 270 276 277 278 279 284 290 291 289 288 288 293 292 292
nan nan nan nan nan nan nan nan nan nan nan nan nan nan nan nan nan nan nan 250 250 251 254 259 264 263 265 267 271 273 274 273 272 274 279 282 284 284 285 285 289 292 291
nan nan nan nan nan nan nan nan nan nan nan nan nan nan nan nan nan nan nan nan nan 250 251 253 257 260 260 267 271 274 274 274 275 276 275 277 282 283 285 286 289 291 293
nan nan nan nan nan nan nan nan nan nan nan nan nan nan nan nan nan nan nan nan nan nan nan 250 250 252 257 266 270 272 270 272 273 275 275 276 279 282 282 281 280 277 278
nan nan nan nan nan nan nan nan nan nan nan nan nan nan nan nan nan nan nan nan nan nan nan nan nan 253 254 256 266 272 268 270 273 274 278 279 280 283 285 283 281 280 280
nan nan nan nan nan nan nan nan nan nan nan nan nan nan nan nan nan nan nan nan nan nan nan nan nan nan 255 261 263 259 263 265 268 273 275 277 279 285 286 284 284 279 nan
nan nan nan nan nan nan nan nan nan nan nan nan nan nan nan nan nan nan nan nan nan nan nan nan nan nan nan 260 267 264 262 263 265 266 268 272 276 282 283 283 283 282 nan
nan nan nan nan nan nan nan nan nan nan nan nan nan nan nan nan nan nan nan nan nan nan nan nan nan nan nan nan nan nan 266 266 266 267 270 270 277 274 275 276 nan nan nan
nan nan nan nan nan nan nan nan nan nan nan nan nan nan nan nan nan nan nan nan nan nan nan nan nan nan nan nan nan nan nan 263 266 267 267 268 273 273 274 272 nan nan nan
nan nan nan nan nan nan nan nan nan nan nan nan nan nan nan nan nan nan nan nan nan nan nan nan nan nan nan nan nan nan nan 262 262 264 270 271 271 271 274 nan nan nan nan
nan nan nan nan nan nan nan nan nan nan nan nan nan nan nan nan nan nan nan nan nan nan nan nan nan nan nan nan nan nan nan 261 258 265 264 266 270 nan nan nan nan nan nan
nan nan nan nan nan nan nan nan nan nan nan nan nan nan nan nan nan nan nan nan nan nan nan nan nan nan nan nan nan nan nan 255 258 254 255 269 nan nan nan nan nan nan nan
nan nan nan nan nan nan nan nan nan nan nan nan nan nan nan nan nan nan nan nan nan nan nan nan nan nan nan nan nan nan nan 261 267 254 251 nan nan nan nan nan nan nan nan